Weather History for Salinas, CA

Change the Weather History Date:

Sunday, February 17, 2013

  Actual Average Record
Temperature  
Mean Temperature 51 °F 53 °F  
Max Temperature 57 °F 63 °F 79 °F (2007)
Min Temperature 44 °F 43 °F 30 °F (1964)
Degree Days  
Heating Degree Days 14 12  
Month to date heating degree days 231 210  
Since 1 July heating degree days 1581 1688  
Cooling Degree Days 0 0  
Month to date cooling degree days 0 0  
Year to date cooling degree days 0 0  
Growing Degree Days 2 (Base 50)    
Moisture  
Dew Point 45 °F    
Average Humidity 75    
Maximum Humidity 93    
Minimum Humidity 57    
Precipitation  
Precipitation 0.00 in 0.09 in 0.87 in (2011)
Month to date precipitation 0.20 1.51  
Year to date precipitation 1.24 4.11  
Since 1 July precipitation 7.88 8.22  
Sea Level Pressure  
Sea Level Pressure 30.07 in    
Wind  
Wind Speed 8 mph (West)    
Max Wind Speed 14 mph    
Max Gust Speed 17 mph    
Visibility 9 miles    
Events      
T = Trace of Precipitation, MM = Missing Value Source: NWS Daily Summary

Daily Weather History Graph

Daily Weather History Graph

Search for Another Location

Airport:

Trip Planner

Search our weather history database for the weather conditions in past years. The results will help you decide how hot, cold, wet, or windy it might be!

Date:

Astronomy

Feb. 17, 2013 Rise Set
Actual Time 6:51 AM PST 5:49 PM PST
Civil Twilight 6:25 AM PST 6:15 PM PST
Nautical Twilight 5:55 AM PST 6:46 PM PST
Astronomical Twilight 5:25 AM PST 7:16 PM PST
Moon 11:01 AM PST (2/17) 12:37 AM PST (2/17)
Length of Visible Light 11h 50m
Length of Day
10h 57m
Waxing Crescent, 50% of the Moon is Illuminated
Feb 17
Waxing Crescent
Feb 17
First Quarter
Feb 25
Full
Mar 4
Last Quarter
Mar 11
New

Hourly Weather History & Observations

Time (PST) Temp. Dew Point Humidity Pressure Visibility Wind Dir Wind Speed Gust Speed Precip Events Conditions
12:05 AM 50.0 °F 46.4 °F 87% 30.07 in 6.0 mi NW 4.6 mph - N/A   Mostly Cloudy
12:17 AM 50.0 °F 48.2 °F 94% 30.08 in 4.0 mi WNW 4.6 mph - N/A   Overcast
12:53 AM 50.0 °F 48.0 °F 93% 30.10 in 7.0 mi West 6.9 mph - N/A   Overcast
1:07 AM 50.0 °F 48.2 °F 94% 30.07 in 7.0 mi West 6.9 mph - N/A   Overcast
1:53 AM 50.0 °F 46.9 °F 89% 30.10 in 8.0 mi West 9.2 mph - N/A   Overcast
2:53 AM 50.0 °F 46.9 °F 89% 30.09 in 8.0 mi West 6.9 mph - N/A   Overcast
3:53 AM 48.9 °F 46.9 °F 93% 30.07 in 8.0 mi West 8.1 mph - N/A   Overcast
4:53 AM 50.0 °F 46.0 °F 86% 30.07 in 8.0 mi WNW 4.6 mph - N/A   Overcast
5:53 AM 48.9 °F 45.0 °F 86% 30.07 in 9.0 mi West 5.8 mph - N/A   Overcast
6:53 AM 48.9 °F 46.0 °F 90% 30.09 in 8.0 mi West 5.8 mph - N/A   Overcast
7:53 AM 48.9 °F 45.0 °F 86% 30.10 in 8.0 mi WSW 8.1 mph - N/A   Overcast
8:23 AM 50.0 °F 44.6 °F 82% 30.07 in 8.0 mi West 11.5 mph - N/A   Overcast
8:53 AM 51.1 °F 44.1 °F 77% 30.11 in 8.0 mi WSW 8.1 mph - N/A   Overcast
9:13 AM 51.8 °F 44.6 °F 76% 30.08 in 8.0 mi West 9.2 mph - N/A   Overcast
9:53 AM 52.0 °F 44.1 °F 74% 30.10 in 9.0 mi WSW 12.7 mph - N/A   Overcast
10:53 AM 53.1 °F 44.1 °F 71% 30.10 in 10.0 mi West 10.4 mph - N/A   Mostly Cloudy
11:01 AM 53.6 °F 44.6 °F 72% 30.07 in 10.0 mi West 8.1 mph - N/A   Scattered Clouds
11:53 AM 54.0 °F 43.0 °F 66% 30.09 in 10.0 mi WNW 9.2 mph - N/A   Clear
12:53 PM 55.9 °F 43.0 °F 62% 30.06 in 10.0 mi West 9.2 mph - N/A   Clear
1:53 PM 57.0 °F 43.0 °F 59% 30.04 in 10.0 mi West 11.5 mph - N/A   Clear
2:53 PM 55.9 °F 43.0 °F 62% 30.03 in 10.0 mi WNW 13.8 mph - N/A   Clear
3:53 PM 55.9 °F 43.0 °F 62% 30.02 in 10.0 mi West 9.2 mph - N/A   Clear
4:53 PM 54.0 °F 44.1 °F 69% 30.02 in 10.0 mi West 10.4 mph - N/A   Clear
5:53 PM 52.0 °F 45.0 °F 77% 30.03 in 9.0 mi West 8.1 mph - N/A   Clear
6:53 PM 50.0 °F 44.1 °F 80% 30.04 in 10.0 mi WSW 8.1 mph - N/A   Clear
7:53 PM 48.9 °F 44.1 °F 83% 30.04 in 10.0 mi WNW 4.6 mph - N/A   Clear
9:53 PM 48.0 °F 43.0 °F 83% 30.05 in 9.0 mi NW 5.8 mph - N/A   Clear
10:53 PM 46.9 °F 43.0 °F 86% 30.06 in 9.0 mi West 3.5 mph - N/A   Clear
11:53 PM 46.0 °F 42.1 °F 86% 30.06 in 9.0 mi Calm Calm - N/A   Clear